{"data":{"norad_id":67642,"epoch":"2026-09-19T21:52:54.518304Z","epoch_age_seconds":119932,"freshness":"FRESH","line1":"1 67642U 26020AB  26262.91174211  .00017991  00000+0  66142-3 0  9997","line2":"2 67642  43.0002 123.2334 0001213 265.3147  94.7566 15.27593544 35818","mean_motion":15.27593544,"eccentricity":0.0001213,"inclination_deg":43.0002,"raan_deg":123.2334,"arg_perigee_deg":265.3147,"mean_anomaly_deg":94.7566,"bstar":0.00066142,"rev_number":3581,"period_min":94.265912922711,"perigee_km":482.17628377678,"apogee_km":483.84079768496,"semimajor_km":6861.1455407309,"source":"CELESTRAK","updated_at":"2026-09-20T09:00:43.616643Z"}}